TimeCDT,TemperatureF,Dew PointF,Humidity,Sea Level PressureIn,VisibilityMPH,Wind Direction,Wind SpeedMPH,Gust SpeedMPH,PrecipitationIn,Events,Conditions,WindDirDegrees,DateUTC
12:15 AM,42.8,33.8,70,29.62,10.0,SW,4.6,-,N/A,,Clear,220,2014-03-14 05:15:00
12:35 AM,43.2,33.4,69,29.61,10.0,SW,5.8,-,N/A,,Clear,220,2014-03-14 05:35:00
12:55 AM,43.7,33.1,66,29.59,10.0,SSW,4.6,-,N/A,,Clear,210,2014-03-14 05:55:00
1:15 AM,44.1,32.7,64,29.58,10.0,SW,6.9,-,N/A,,Clear,220,2014-03-14 06:15:00
1:35 AM,44.2,32.2,63,29.56,10.0,SSW,6.9,-,N/A,,Clear,210,2014-03-14 06:35:00
1:55 AM,44.6,32.0,61,29.56,10.0,SW,4.6,-,N/A,,Clear,230,2014-03-14 06:55:00
2:15 AM,44.6,32.0,61,29.55,10.0,SW,3.5,-,N/A,,Clear,220,2014-03-14 07:15:00
2:35 AM,44.1,31.8,62,29.54,10.0,SW,3.5,-,N/A,,Clear,220,2014-03-14 07:35:00
2:55 AM,43.7,31.6,63,29.54,10.0,SSW,3.5,-,N/A,,Clear,210,2014-03-14 07:55:00
3:15 AM,41.7,31.1,66,29.53,10.0,South,6.9,-,N/A,,Clear,190,2014-03-14 08:15:00
3:35 AM,41.4,31.1,67,29.52,10.0,South,5.8,-,N/A,,Clear,190,2014-03-14 08:35:00
3:55 AM,41.9,30.7,65,29.52,10.0,SSW,4.6,-,N/A,,Clear,200,2014-03-14 08:55:00
4:15 AM,37.8,30.4,75,29.50,10.0,SSW,3.5,-,N/A,,Clear,200,2014-03-14 09:15:00
4:35 AM,39.6,29.8,68,29.49,10.0,SSW,3.5,-,N/A,,Clear,200,2014-03-14 09:35:00
4:55 AM,41.9,29.8,62,29.50,10.0,WSW,4.6,-,N/A,,Scattered Clouds,250,2014-03-14 09:55:00
5:15 AM,41.0,29.7,64,29.48,10.0,SW,3.5,-,N/A,,Scattered Clouds,220,2014-03-14 10:15:00
5:35 AM,35.1,28.0,76,29.49,10.0,West,3.5,-,N/A,,Clear,270,2014-03-14 10:35:00
5:55 AM,41.0,29.7,64,29.50,10.0,WSW,3.5,-,N/A,,Clear,250,2014-03-14 10:55:00
6:15 AM,40.5,29.7,65,29.50,10.0,WSW,5.8,-,N/A,,Clear,250,2014-03-14 11:15:00
6:35 AM,40.1,29.8,67,29.50,10.0,West,4.6,-,N/A,,Clear,260,2014-03-14 11:35:00
6:55 AM,40.3,30.0,67,29.50,10.0,WSW,6.9,-,N/A,,Clear,250,2014-03-14 11:55:00
7:15 AM,40.1,30.2,68,29.51,10.0,WSW,6.9,-,N/A,,Clear,250,2014-03-14 12:15:00
7:35 AM,39.9,30.2,68,29.51,10.0,WSW,6.9,-,N/A,,Clear,250,2014-03-14 12:35:00
7:55 AM,39.6,30.6,70,29.52,10.0,WSW,5.8,-,N/A,,Scattered Clouds,240,2014-03-14 12:55:00
8:15 AM,39.6,30.9,71,29.52,10.0,WSW,5.8,-,N/A,,Mostly Cloudy,240,2014-03-14 13:15:00
8:35 AM,39.4,31.1,72,29.53,10.0,West,8.1,-,N/A,,Overcast,270,2014-03-14 13:35:00
8:55 AM,40.1,31.8,72,29.54,10.0,West,6.9,-,N/A,,Overcast,260,2014-03-14 13:55:00
9:15 AM,40.6,32.0,71,29.54,10.0,West,5.8,-,N/A,,Overcast,260,2014-03-14 14:15:00
9:35 AM,40.5,32.0,72,29.55,10.0,West,6.9,-,N/A,,Overcast,270,2014-03-14 14:35:00
9:55 AM,40.3,32.0,72,29.54,10.0,West,8.1,-,N/A,,Overcast,270,2014-03-14 14:55:00
10:15 AM,42.1,31.8,67,29.55,10.0,West,11.5,16.1,N/A,,Mostly Cloudy,270,2014-03-14 15:15:00
10:35 AM,41.9,31.3,66,29.55,10.0,West,11.5,17.3,N/A,,Scattered Clouds,260,2014-03-14 15:35:00
10:55 AM,42.1,30.9,65,29.55,10.0,West,12.7,18.4,N/A,,Clear,260,2014-03-14 15:55:00
11:15 AM,43.0,30.6,62,29.55,10.0,West,12.7,17.3,N/A,,Clear,270,2014-03-14 16:15:00
11:30 AM,43.0,30.6,62,29.56,10.0,WNW,12.7,-,N/A,,Clear,290,2014-03-14 16:30:00
11:55 AM,42.3,30.2,62,29.58,10.0,West,17.3,23.0,N/A,,Mostly Cloudy,270,2014-03-14 16:55:00
12:15 PM,40.3,30.2,67,29.60,10.0,West,17.3,23.0,N/A,,Overcast,270,2014-03-14 17:15:00
12:35 PM,39.7,29.8,68,29.61,10.0,WNW,15.0,24.2,N/A,,Overcast,290,2014-03-14 17:35:00
12:55 PM,39.6,29.8,68,29.62,10.0,West,8.1,16.1,N/A,,Overcast,280,2014-03-14 17:55:00
1:15 PM,39.4,29.7,68,29.62,10.0,WNW,13.8,23.0,N/A,,Overcast,290,2014-03-14 18:15:00
1:35 PM,39.2,30.0,70,29.63,10.0,West,15.0,21.9,N/A,,Overcast,280,2014-03-14 18:35:00
1:55 PM,39.0,30.2,71,29.63,10.0,West,11.5,23.0,N/A,,Overcast,270,2014-03-14 18:55:00
2:15 PM,39.0,30.4,71,29.64,10.0,West,11.5,21.9,N/A,,Overcast,270,2014-03-14 19:15:00
2:30 PM,39.2,30.7,72,29.64,10.0,West,12.7,19.6,N/A,,Overcast,270,2014-03-14 19:30:00
2:55 PM,40.1,31.1,70,29.64,10.0,West,13.8,19.6,N/A,,Overcast,270,2014-03-14 19:55:00
3:15 PM,40.6,31.1,69,29.65,10.0,West,11.5,17.3,N/A,,Overcast,280,2014-03-14 20:15:00
3:35 PM,42.1,30.9,65,29.65,10.0,West,15.0,27.6,N/A,,Overcast,280,2014-03-14 20:35:00
3:55 PM,41.4,30.9,66,29.66,10.0,West,15.0,20.7,N/A,,Overcast,270,2014-03-14 20:55:00
4:15 PM,41.5,30.7,65,29.67,10.0,West,12.7,20.7,N/A,,Overcast,270,2014-03-14 21:15:00
4:35 PM,42.1,30.6,64,29.67,10.0,West,13.8,18.4,N/A,,Mostly Cloudy,270,2014-03-14 21:35:00
4:55 PM,42.6,30.9,63,29.67,10.0,West,10.4,20.7,N/A,,Mostly Cloudy,260,2014-03-14 21:55:00
5:20 PM,41.5,30.7,65,29.68,10.0,West,11.5,16.1,N/A,,Mostly Cloudy,260,2014-03-14 22:20:00
5:30 PM,41.9,30.6,64,29.69,10.0,West,11.5,17.3,N/A,,Mostly Cloudy,260,2014-03-14 22:30:00
5:55 PM,41.0,30.0,65,29.70,10.0,West,17.3,21.9,N/A,,Overcast,270,2014-03-14 22:55:00
6:10 PM,40.6,29.3,64,29.71,10.0,West,15.0,21.9,N/A,,Overcast,260,2014-03-14 23:10:00
6:35 PM,40.1,29.3,65,29.72,10.0,West,11.5,19.6,N/A,,Overcast,270,2014-03-14 23:35:00
6:55 PM,39.7,28.6,64,29.72,10.0,West,17.3,20.7,N/A,,Overcast,270,2014-03-14 23:55:00
7:10 PM,39.7,28.2,63,29.73,10.0,West,12.7,20.7,N/A,,Overcast,270,2014-03-15 00:10:00
7:35 PM,39.6,28.2,64,29.74,10.0,West,17.3,23.0,N/A,,Overcast,270,2014-03-15 00:35:00
7:55 PM,39.2,27.1,62,29.75,10.0,West,15.0,20.7,N/A,,Overcast,280,2014-03-15 00:55:00
8:15 PM,38.7,26.8,62,29.77,10.0,West,13.8,18.4,N/A,,Overcast,280,2014-03-15 01:15:00
8:35 PM,38.3,27.0,64,29.78,10.0,West,11.5,18.4,N/A,,Overcast,270,2014-03-15 01:35:00
8:55 PM,37.6,26.4,64,29.79,10.0,West,11.5,19.6,N/A,,Mostly Cloudy,270,2014-03-15 01:55:00
9:15 PM,36.9,25.2,63,29.81,10.0,West,11.5,26.5,N/A,,Scattered Clouds,280,2014-03-15 02:15:00
9:35 PM,36.5,24.3,61,29.82,10.0,WNW,10.4,24.2,N/A,,Scattered Clouds,290,2014-03-15 02:35:00
9:55 PM,36.0,24.4,63,29.83,10.0,West,13.8,20.7,N/A,,Mostly Cloudy,280,2014-03-15 02:55:00
10:15 PM,35.6,25.2,66,29.84,10.0,WNW,15.0,19.6,N/A,,Mostly Cloudy,290,2014-03-15 03:15:00
10:35 PM,34.7,21.4,58,29.86,10.0,NW,15.0,23.0,N/A,,Mostly Cloudy,320,2014-03-15 03:35:00
10:55 PM,33.6,21.2,60,29.87,10.0,WNW,17.3,-,N/A,,Scattered Clouds,290,2014-03-15 03:55:00
11:15 PM,33.1,22.1,64,29.88,10.0,NW,13.8,19.6,N/A,,Mostly Cloudy,310,2014-03-15 04:15:00
11:35 PM,32.0,20.5,63,29.88,10.0,NNW,12.7,-,N/A,,Scattered Clouds,330,2014-03-15 04:35:00
11:55 PM,31.6,19.8,62,29.89,10.0,NW,11.5,17.3,N/A,,Scattered Clouds,320,2014-03-15 04:55:00